MET993 - Jakarta to Hong Kong

Airbus A330-243
787MT
4 hrs 15 mins
1762 nm
Scheduled - SU | W | F | SA

Bid/PiRep Status

Bid was submitted on January 1st, 2017 18:00 UTC.
PiRep # 74567: Approved by Sean Doyle on January 2nd, 2017 15:14 UTC

Departure

Departing from
Jakarta (CGK)
Departure gate
Ramp
Scheduled Departure
GMT 1215
Local 1915
METAR WIII 201800Z 18002KT 5000 SCT020 26/22 Q1011 NOSIG
TAF TAF WIII 201700Z 2018/2124 VRB03KT 5000 HZ SCT020 BECMG 2101/2103 01010KT 9999 NSW
  • No charts available

Arrival

Arriving at
Hong Kong (HKG)
Arrival gate
Terminal 1
Scheduled Arrival
GMT 1630
Local 0030
METAR VHHH 201800Z 11007KT 9999 FEW022 29/25 Q1008 NOSIG
TAF TAF VHHH 201700Z 2018/2124 11010KT 9999 FEW025 TX33/2106Z TN28/2022Z TN27/2122Z TEMPO 2018/2104 VRB05KT TEMPO 2104/2109 28010KT TEMPO 2109/2118 VRB05KT TEMPO 2120/2124 3000 SHRA FEW015CB SCT025

Route Map

Planning Resources

DKI P648 OSUKA M772 DULOP M771 DUMOL
AMBO1B AMBOY P648 OSUKA M772 DULOP Q1 CARSO V551 BETTY BETY2B
JAKARTA2 DEDNY B592 OSUKA M772 DUMOL DUMOL1A
WIII DKI ATOSO OSUKA ANIPU VSB TAMIB DARMU ASISU VAVUM DABGI DUM OL CH VHHH
AMBO1B AMBOY P648 OSUKA M772 DULOP Q1 CARSO
Route:
OFP Layout:
Units:
Detailed Navlog:
ETOPS Planning:
Plan Stepclimbs:
Runway Analysis:
Include NOTAMS:
FIR NOTAMS:
Flight Maps:

Return Flights

MET992
Airbus A330-243
0700 GMT

Popularity

Hub Current Bids PiReps this month Total PiReps
KMCI 0 0 3
KLAX 0 0 4
KBOS 0 0 0